Location: Gulgong NSW 2852, Australia
(32.2976°S, 149.5548°E)
Time: 01:48:33
(UTC+11:00)

Envisat - Visible Passes

Search period start: 05 December 2021 00:00
Search period end: 15 December 2021 00:00
Orbit: 764 x 766 km, 98.2° (Epoch: 04 December)

Date Brightness Start Highest point End Pass type
(mag) Time Alt. Az. Time Alt. Az. Time Alt. Az.
05 Dec 4.8 04:38:05 10° NE 04:42:39 34° ESE 04:47:16 10° S visible
06 Dec 6.0 04:03:22 10° E 04:06:10 15° ESE 04:08:58 10° SSE visible
07 Dec 3.6 05:02:48 10° NNE 05:07:49 63° ESE 05:12:54 10° S visible
08 Dec 5.3 04:26:59 10° NE 04:31:12 27° ESE 04:35:26 10° SSE visible
09 Dec 6.2 03:53:14 10° E 03:54:45 11° ESE 03:56:16 10° SE visible
10 Dec 4.1 04:51:26 10° NNE 04:56:19 48° ESE 05:01:15 10° S visible
11 Dec 5.7 04:16:01 10° ENE 04:19:44 21° ESE 04:23:29 10° SSE visible
12 Dec 3.1 05:16:26 10° NNE 05:21:32 89° E 05:26:42 10° SSW visible
13 Dec 4.7 04:40:10 10° NE 04:44:49 37° ESE 04:49:31 10° S visible
14 Dec 5.9 04:05:15 10° ENE 04:08:18 16° ESE 04:11:22 10° SSE visible
